{"data":{"norad_id":63951,"intl_designator":"2025-098AB","name":"STARLINK-33998","alt_names":[],"object_type":"PAYLOAD","status":"ACTIVE","operator":null,"country":"US","launch_date":"2025-05-13","launch_site_code":"AFWTR","launch_vehicle":null,"mission":null,"orbit_class":"UNKNOWN","rcs_meters":null,"size_class":null,"mass_kg":null,"dimensions":null,"purposes":["comms"],"wikipedia_slug":null,"has_3d_model":false,"image_url":null,"decayed_at":null,"tle_current":{"epoch":"2026-09-20T02:42:36.864288Z","epoch_age_seconds":180574,"freshness":"STALE","line1":"1 63951U 25098AB  26263.11292667  .00015221  00000+0  53267-3 0  9997","line2":"2 63951  70.0009 141.9165 0002439 275.2918  84.7979 15.29592369 75738","mean_motion":15.29592369,"eccentricity":0.0002439,"inclination_deg":70.0009,"raan_deg":141.9165,"arg_perigee_deg":275.2918,"mean_anomaly_deg":84.7979,"bstar":0.00053267,"rev_number":7573,"period_min":94.142729081567,"perigee_km":475.35797141591,"apogee_km":478.70192185247,"semimajor_km":6855.1669466342,"source":"CELESTRAK","updated_at":"2026-09-21T09:00:35.173299Z"}}}